LKW-4

导读

LKW-4即陆地勘查卫星四号,是中国于2018年3月17日成功发射的遥感勘查卫星,由长征二号丁运载火箭送入预定轨道。该卫星由航天东方红卫星有限公司抓总研制,核心任务是开展陆地资源遥感勘查,可为地质调查、矿产资源勘探、国土资源监测、生态环境评估等领域提供精准的遥感数据支撑,助力我国陆地资源开发与空间遥感事业发展。

Basic Information
目录编号:
43236
目录名称:
LKW-4
国际标识:
2018-025A
轨道中心:
EARTH
卫星名称:
LKW-4
卫星全名:
--
卫星状态:
在轨 (已飞行3100 天)
发射日期:
2018-03-17 UTC
国别 :
中国 (CN)
星等 :
--
This satellite is enrolled in the Space Conjunction Data Service (SCDS) and the current flight risk assessment level is: No High Risk
Orbit Information
数据来源 国际轨道数据
星历时间: 2026-09-11T07:17:27+0800
15小时前
查看轨道信息
半长轴: 6738.118km
偏心率: 0.000208
轨道倾角: 97.636°
近地点辐角 354.685°
升交点赤经 72.075°
平近点角 5.439°
近地点: 358.579km
远地点: 361.383km
周期: 91.742分钟
每日圈数: 15.696214
Detailed Information
使用方式:
暂无
2D Orbit Map
3D Orbit Map
Orbit Altitude Analysis Chart
Orbit Inclination Analysis Chart
Orbit Comprehensive Analysis Chart
View Comprehensive Chart
Conjunction Data List
Event ID Objects TCA Miss Dist (km) Collision Risk Probability Collision Risk Index (CRI) Action
CDM_260912-145204-323606-124922
LKW-4 (43236)
2026-09-12T
14:52:47+0000
0.789 km
远距离
5.7684E-5 中风险 0.7
CDM_260912-223804-323606-040421
LKW-4 (43236)
2026-09-12T
22:38:50+0000
1.096 km
极远距离
1.977273E-5 中风险 0.61
CDM_260913-080004-323606-072722
LKW-4 (43236)
2026-09-13T
08:00:12+0000
2.091 km
极远距离
2.555892E-6 低风险 0.43
CDM_260913-134704-323606-194021
LKW-4 (43236)
2026-09-13T
13:47:26+0000
2.168 km
极远距离
1.988667E-6 低风险 0.41
CDM_260912-104104-323605-975923
LKW-4 (43236)
2026-09-12T
10:41:25+0000
2.644 km
极远距离
1.243079E-6 低风险 0.37
Miss Distance Evolution Trend with All Objects
Collision Probability Evolution Trend with All Objects